Location: City of Moscow
(46.7306°N, 116.9989°W)
Time: 14:26:37
(UTC+00:00)

CUBEBUG 2 - Pass Details

Date: 25 April 2026
Orbit: 546 x 628 km, 97.9° (Epoch: 15 May)

Event Time Altitude Azimuth Distance (km) Brightness Sun altitude
Rises 11:48:25 0° 355° (N) 2,834 ? -9.2°
Reaches altitude 10° 11:51:50 10° 325° (NW) 1,905 ? -8.7°
Maximum altitude 11:53:27 12° 302° (WNW) 1,758 ? -8.5°
Drops below altitude 10° 11:55:02 10° 278° (W) 1,881 ? -8.2°
Enters shadow 11:55:57 - 267° (W) 2,056 ? -8.1°
